Home > Weather > Windhoek > Past weeks

Flag for Namibia Past Weather in Windhoek, Namibia — Yesterday and Last 2 Weeks

Now
75 °F

Sunny.


Feels Like: 75 °F
Forecast: 37 / 76 °F
Wind: 9 mph from Northwest

Location: Windhoek

Current Time: Jul 29, 2016 at 5:06:00 PM

Latest Report: Jul 29, 2016 at 4:00 PM


Visibility: 10 mi

Pressure: 30.12 "Hg (24.83 "Hg at 1680m altitude)

Humidity: 12%

Dew Point: 19 °F

Location of WindhoekLocation

Past Weather in Windhoek — Graph

°F

Windhoek Temperature Yesterday

Maximum temperature yesterday: 73 °F (at 1:00 PM)
Minimum temperature yesterday: 39 °F (at 5:00 AM)
Average temperature yesterday: 57 °F

High & Low Weather Summary for the Past Weeks

 TemperatureHumidityPressure
High79 °F (Jul 22, 3:00 PM)70% (Jul 24, 6:00 AM)30.45 "Hg (Jul 24, 6:00 AM)
Low32 °F (Jul 26, 6:00 AM)2% (Jul 28, 11:00 AM)30.04 "Hg (Jul 24, 3:00 PM)
Average57 °F24%30.25 "Hg
* Reported Jul 14 4:00 PM — Jul 29 4:00 PM, Windhoek, Weather by CustomWeather, © 2016

Note: Actual official high and low records may vary slightly from our data, if they occured in-between our weather recording intervals... More about our weather records

Advertising

Windhoek Weather History for the Previous 24 Hours

Scroll right to see more
 ConditionsComfort  
Time TempWeatherWind HumidityBarometerVisibility
4:00 PM
Fri, Jul 29
75 °FSunny.9 mph12%30.12 "Hg10 mi
3:00 PM75 °FSunny.10 mph12%30.12 "Hg10 mi
2:00 PM75 °FSunny.12 mph11%30.15 "Hg10 mi
1:00 PM73 °FMild.9 mph10%30.15 "HgN/A
12:00 PM73 °FSunny.9 mph9%30.18 "Hg10 mi
11:00 AM72 °FSunny.5 mph10%30.21 "Hg10 mi
10:00 AM68 °FSunny.5 mph10%30.21 "Hg10 mi
9:00 AM66 °FSunny.1 mph9%30.21 "Hg10 mi
8:00 AM59 °FSunny.5 mph9%30.21 "Hg10 mi
7:00 AM55 °FSunny.3 mph11%30.21 "Hg10 mi
6:00 AM50 °FCool.9 mph11%30.18 "HgN/A
5:00 AM50 °FCool.7 mph12%30.18 "HgN/A
4:00 AM48 °FCool.9 mph13%30.18 "HgN/A
3:00 AM50 °FCool.9 mph12%30.18 "HgN/A
2:00 AM52 °FCool.6 mph12%30.18 "HgN/A
1:00 AM50 °FCool.7 mph13%30.21 "HgN/A
12:00 AM54 °FCool.5 mph12%30.21 "HgN/A
11:00 PM
Thu, Jul 28
52 °FCool.5 mph12%30.24 "HgN/A
10:00 PM55 °FRefreshingly cool.6 mph9%30.21 "HgN/A
9:00 PM55 °FRefreshingly cool.6 mph9%30.21 "HgN/A
8:00 PM55 °FRefreshingly cool.5 mph8%30.21 "HgN/A
7:00 PM59 °FRefreshingly cool.2 mph8%30.18 "HgN/A
6:00 PM66 °FClear.2 mph5%30.18 "Hg10 mi
5:00 PM72 °FClear.3 mph4%30.18 "Hg10 mi
Weather by CustomWeather, © 2016

See weather overviewHow to use our weather pages